Stations météo

réclame
Mon MeteoGroup
Kalmar, Suède (2670): Température de l'air & dewpoint: 14.01.2019 12:00:00 - 20.01.2019 12:00:00 (CET)Kalmar, Suède (2670): Vitesse du vent: 14.01.2019 12:00:00 - 20.01.2019 12:00:00 (CET)Kalmar, Suède (2670): Direction du vent: 14.01.2019 12:00:00 - 20.01.2019 12:00:00 (CET)Kalmar, Suède (2670): reduced air pressure: 14.01.2019 12:00:00 - 20.01.2019 12:00:00 (CET)Kalmar, Suède (2670): visibility: 14.01.2019 12:00:00 - 20.01.2019 12:00:00 (CET)
Date & Time tt [°C] td [°C] ff [km/h] ff [knt] dd ppp [hPa] vv [km]
20.01.2019 12:00:00 0,0 -3,0 11 6 W - 10
20.01.2019 11:00:00 -0,2 -2,3 11 6 W 1017,0 10
20.01.2019 10:00:00 -0,8 -2,1 5 3 W 1016,7 10
20.01.2019 09:00:00 -1,1 -1,9 9 5 WSW 1016,0 10
20.01.2019 08:00:00 -1,2 -1,9 5 3 WNW 1015,5 10
20.01.2019 07:00:00 -1,1 -1,9 9 5 N 1015,3 10
20.01.2019 06:00:00 -1,1 -1,2 9 5 N 1014,7 9
20.01.2019 05:00:00 1,6 0,0 11 6 W 1014,0 10
20.01.2019 04:00:00 1,4 0,1 11 6 WSW 1013,9 10
20.01.2019 03:00:00 1,2 0,3 13 7 WSW 1014,0 10
20.01.2019 02:00:00 0,4 -0,2 9 5 SW 1014,0 10
20.01.2019 01:00:00 0,0 -0,3 11 6 WSW 1014,0 10
20.01.2019 00:00:00 0,8 -0,1 13 7 WSW 1013,9 10
19.01.2019 23:00:00 0,6 -0,4 11 6 WSW 1014,2 10
19.01.2019 22:00:00 1,1 -0,4 11 6 SSW 1014,0 10
19.01.2019 21:00:00 2,2 -0,1 18 10 W 1013,9 10
19.01.2019 20:00:00 1,3 -0,6 16 9 WSW 1013,9 10
19.01.2019 19:00:00 1,5 -1,1 16 9 SW 1013,3 10
19.01.2019 18:00:00 1,7 -1,2 18 10 W 1013,8 10
19.01.2019 17:00:00 1,8 -1,3 22 12 W 1013,9 10
19.01.2019 16:00:00 1,7 -0,7 16 9 W 1013,9 10
19.01.2019 15:00:00 1,8 -0,8 18 10 W 1014,1 10
19.01.2019 14:00:00 1,2 -0,8 15 8 WSW 1014,4 10
19.01.2019 13:00:00 0,6 -0,9 21 11 W 1014,7 10
19.01.2019 12:00:00 0,9 -1,3 13 7 WSW 1014,7 10
19.01.2019 11:00:00 0,0 -1,7 13 7 WSW 1015,0 10
19.01.2019 10:00:00 -1,7 -2,8 13 7 WSW 1015,2 10
19.01.2019 09:00:00 -3,3 -4,6 11 6 W 1015,0 10
19.01.2019 08:00:00 -5,0 -6,4 5 3 WSW 1014,7 10
19.01.2019 07:00:00 -7,0 -8,1 5 3 WSW 1014,6 10
19.01.2019 06:00:00 -5,8 -6,7 8 4 W 1014,5 10
19.01.2019 05:00:00 -5,2 -6,4 8 4 W 1014,6 10
19.01.2019 04:00:00 -4,5 -6,0 9 5 W 1014,5 10
19.01.2019 03:00:00 -4,6 -5,8 9 5 W 1014,3 10
19.01.2019 02:00:00 -4,0 -5,3 13 7 W 1014,0 10
19.01.2019 01:00:00 -3,6 -5,0 16 9 W 1013,6 10
19.01.2019 00:00:00 -3,1 -4,7 16 9 W 1013,2 10
18.01.2019 23:00:00 -2,6 -4,5 15 8 W 1012,9 10
18.01.2019 22:00:00 -2,2 -4,5 15 8 W 1012,4 10
18.01.2019 21:00:00 -1,9 -4,7 16 9 W 1011,8 10
18.01.2019 20:00:00 -1,9 -5,2 18 10 W 1011,3 10
18.01.2019 19:00:00 -1,6 -5,6 21 11 W 1011,1 10
18.01.2019 18:00:00 -1,6 -6,4 15 8 W 1011,0 10
18.01.2019 17:00:00 -1,1 -6,3 18 10 W 1010,8 10
18.01.2019 16:00:00 -0,6 -7,4 15 8 W 1010,5 10
18.01.2019 15:00:00 0,1 -8,6 21 11 WNW 1010,0 10
18.01.2019 14:00:00 0,5 -8,2 18 10 W 1009,5 10
18.01.2019 13:00:00 0,1 -7,4 16 9 W 1009,3 10
18.01.2019 12:00:00 -0,8 -6,6 18 10 WNW 1008,9 10
18.01.2019 11:00:00 -1,9 -6,1 16 9 WNW 1008,4 10
18.01.2019 10:00:00 -3,3 -6,3 15 8 WNW 1007,9 10
18.01.2019 09:00:00 -4,2 -6,5 15 8 WNW 1007,0 10
18.01.2019 08:00:00 -4,6 -6,4 15 8 WNW 1005,9 10
18.01.2019 07:00:00 -4,8 -6,6 13 7 WNW 1005,2 10
18.01.2019 06:00:00 -4,5 -6,5 11 6 WNW 1004,6 50
18.01.2019 05:00:00 -4,2 -6,5 13 7 WNW 1003,9 10
18.01.2019 04:00:00 -4,4 -6,5 13 7 WNW 1003,5 10
18.01.2019 03:00:00 -4,7 -6,4 13 7 WNW 1002,7 10
18.01.2019 02:00:00 -4,3 -6,1 15 8 NW 1002,1 10
18.01.2019 01:00:00 -3,9 -6,0 18 10 NNW 1001,4 10
18.01.2019 00:00:00 -2,7 -5,3 21 11 NNW 1000,5 10
17.01.2019 23:00:00 -2,1 -4,9 22 12 N 999,6 10
17.01.2019 22:00:00 -2,0 -4,5 21 11 N 998,6 10
17.01.2019 21:00:00 -1,9 -4,2 21 11 N 997,6 10
17.01.2019 20:00:00 -1,9 -4,1 15 8 N 996,2 10
17.01.2019 19:00:00 -1,9 -4,1 15 8 N 995,2 10
17.01.2019 18:00:00 -1,6 -3,9 15 8 N 994,0 10
17.01.2019 17:00:00 -1,5 -3,7 11 6 N 993,4 10
17.01.2019 16:00:00 -1,2 -3,9 11 6 N 992,5 10
17.01.2019 15:00:00 -0,3 -3,5 16 9 N 991,3 10
17.01.2019 14:00:00 0,2 -3,2 16 9 N 990,3 10
17.01.2019 13:00:00 1,5 0,0 15 8 NNW 989,3 10
17.01.2019 12:00:00 3,6 2,4 13 7 W 988,6 10
17.01.2019 11:00:00 4,0 2,0 18 10 W 987,9 10
17.01.2019 10:00:00 3,5 1,9 13 7 WSW 987,3 10
17.01.2019 09:00:00 2,7 1,5 16 9 W 986,3 10
17.01.2019 08:00:00 3,3 2,0 21 11 W 985,5 9
17.01.2019 07:00:00 3,6 2,1 16 9 WSW 984,8 10
17.01.2019 06:00:00 4,2 2,5 18 10 WSW 984,9 10
17.01.2019 05:00:00 4,4 3,1 16 9 WSW 984,9 10
17.01.2019 04:00:00 4,9 4,2 22 12 SW 985,4 10
17.01.2019 03:00:00 5,5 4,1 29 16 SW 985,4 10
17.01.2019 02:00:00 5,8 4,3 29 16 SW 985,7 10
17.01.2019 01:00:00 5,9 4,5 24 13 SW 986,5 10
17.01.2019 00:00:00 6,0 4,6 21 11 SW 987,3 10
16.01.2019 23:00:00 5,9 4,8 21 11 SSW 988,0 10
16.01.2019 22:00:00 5,6 4,9 18 10 SSW 988,7 10
16.01.2019 21:00:00 5,4 4,7 18 10 SSW 989,4 10
16.01.2019 20:00:00 5,2 4,5 21 11 SSW 990,1 8
16.01.2019 19:00:00 5,2 4,5 16 9 SSW 991,0 10
16.01.2019 18:00:00 5,1 4,5 18 10 SW 991,7 10
16.01.2019 17:00:00 4,8 4,5 16 9 SSW 992,5 10
16.01.2019 16:00:00 4,1 4,1 15 8 S 993,3 10
16.01.2019 15:00:00 3,4 3,4 11 6 SSW 994,1 10
16.01.2019 14:00:00 2,6 2,6 13 7 S 995,0 4,0
16.01.2019 13:00:00 2,1 2,1 11 6 S 995,9 10
16.01.2019 12:00:00 0,9 0,9 11 6 SSE 997,2 3,3
16.01.2019 11:00:00 0,1 0,1 9 5 SSE 998,4 10
16.01.2019 10:00:00 -1,9 -1,9 5 3 ESE 999,2 10
16.01.2019 09:00:00 -4,2 -4,2 0 0 N 999,8 8
16.01.2019 08:00:00 -6,6 -6,7 0 0 N 999,6 0,2
16.01.2019 07:00:00 -9,0 -9,5 0 0 N 999,7 0,2
16.01.2019 06:00:00 -7,2 -7,5 0 0 N 999,6 0,2
16.01.2019 05:00:00 -5,5 -5,5 0 0 N 999,8 7
16.01.2019 04:00:00 -4,3 -4,3 4 2 NE 999,7 10
16.01.2019 03:00:00 -3,4 -3,4 0 0 N 999,2 10
16.01.2019 02:00:00 -4,0 -4,0 2 1 E 998,5 10
16.01.2019 01:00:00 -4,9 -4,9 4 2 SE 998,0 10
16.01.2019 00:00:00 -4,2 -4,2 5 3 WSW 997,7 10
15.01.2019 23:00:00 -7,3 -7,4 4 2 SW 997,4 0,1
15.01.2019 22:00:00 -4,0 -4,0 2 1 W 996,9 10
15.01.2019 21:00:00 -3,1 -3,1 4 2 NNW 996,3 6
15.01.2019 20:00:00 -2,4 -2,4 5 3 N 995,3 2,7
15.01.2019 19:00:00 -2,3 -2,3 4 2 NNE 994,4 1,9
15.01.2019 18:00:00 -2,4 -2,4 4 2 - 993,9 1,2
15.01.2019 17:00:00 -2,4 -2,4 4 2 - 994,9 3,2
15.01.2019 16:00:00 -2,3 -2,4 9 5 WSW 996,0 1,5
15.01.2019 15:00:00 -1,8 -3,5 22 12 W 997,3 10
15.01.2019 14:00:00 -0,2 -7,9 11 6 W 997,7 10
15.01.2019 13:00:00 0,0 -8,0 16 9 W 998,2 10
15.01.2019 12:00:00 0,2 -8,0 22 12 W 999,2 10
15.01.2019 11:00:00 -0,3 -8,0 21 11 WNW 999,1 10
15.01.2019 10:00:00 -0,9 -8,3 24 13 WNW 999,6 10
15.01.2019 09:00:00 -1,7 -8,0 22 12 WNW 999,5 10
15.01.2019 08:00:00 -1,4 -8,2 21 11 WNW 998,6 10
15.01.2019 07:00:00 -0,9 -7,9 28 15 W 998,4 10
15.01.2019 06:00:00 -0,5 -8,0 31 17 WNW 998,0 10
15.01.2019 05:00:00 -0,2 -7,7 31 17 WNW 997,4 10
15.01.2019 04:00:00 -0,3 -7,1 34 18 WNW 997,2 10
15.01.2019 03:00:00 -0,2 -6,8 29 16 WNW 997,1 10
15.01.2019 02:00:00 -0,1 -6,5 31 17 WNW 996,6 10
15.01.2019 01:00:00 0,0 -6,8 31 17 WNW 995,8 10
15.01.2019 00:00:00 0,0 -7,1 31 17 W 995,3 10
14.01.2019 23:00:00 0,1 -7,2 31 17 WNW 994,9 10
14.01.2019 22:00:00 0,1 -7,4 28 15 WNW 994,7 10
14.01.2019 21:00:00 0,5 -7,0 31 17 WNW 994,0 10
14.01.2019 20:00:00 0,5 -6,8 29 16 WNW 993,3 10
14.01.2019 19:00:00 0,7 -7,3 31 17 NW 992,6 10
14.01.2019 18:00:00 0,5 -7,7 34 18 WNW 991,3 10
14.01.2019 17:00:00 0,3 -8,4 34 18 WNW 990,3 10
14.01.2019 16:00:00 -0,1 -8,8 24 13 WNW 989,5 10
14.01.2019 15:00:00 0,0 -10,0 29 16 WNW 989,5 10
14.01.2019 14:00:00 0,1 -10,1 26 14 W 989,2 10
14.01.2019 13:00:00 0,0 -9,1 26 14 WNW 988,5 10
14.01.2019 12:00:00 -0,5 -8,9 31 17 NW 988,3 10

tt = Température de l'air
td = dewpoint
ff = Vitesse du vent
dd = Direction du vent
ppp = reduced air pressure
vv = visibility

stations d'obs. à proximité